Location: Alpine
(43.1636°N, 111.0180°W)
Time: 04:03:38
(UTC+00:00)

Tiros 1 despin weight - Pass Details

Date: 28 May 2022
Orbit: 591 x 639 km, 48.2° (Epoch: 30 June)

Event Time Altitude Azimuth Distance (km) Brightness Sun altitude
Rises 01:51:35 0° 253° (WSW) 2,875 ? 9.2°
Reaches altitude 10° 01:53:55 10° 255° (WSW) 1,963 ? 8.8°
Maximum altitude 01:58:25 69° 339° (NNW) 647 ? 8.1°
Drops below altitude 10° 02:02:51 10° 64° (ENE) 1,940 ? 7.3°
Sets 02:05:09 0° 67° (ENE) 2,837 ? 7.0°
